Weather Roundup
Issued by NWS

Home | Current Version | Previous Version | Text Only | Print | Product List | Glossary On
Versions: 1 2 3 4 5 6 7 8 9 10 11 12 13 14 15 16 17 18 19 20 21 22 23 24 25 26 27 28 29 30 31 32 33 34 35 36 37 38 39 40 41 42 43 44 45 46 47 48 49 50
122
NZUS93 KARX 010510
HRRWXR

CURRENT HOURLY OBSERVATIONS ACROSS
MUCH OF THE UPPER MISSISSIPPI VALLEY
NATIONAL WEATHER SERVICE LA CROSSE WI
1200 AM CDT MON MAY 01 2017


...SOUTHEAST MINNESOTA...


CITY           SKY/WX    TMP DP  RH WIND       PRES   REMARKS
ROCHESTER      LGT RAIN  38  37  97 E16       29.57F WCI  29
ROCHESTER/MAYO CLOUDY    38  39 100 NE8       29.59F WCI  33
WINONA         LGT RAIN  39  37  93 NE7       29.66F WCI  34
AUSTIN         HVY RAIN  39  36  87 NE12G17   29.50F WCI  32
ALBERT LEA     RAIN      37  37 100 NE20      29.50F WCI  27
DODGE CENTER   DRIZZLE   37  37 100 NE15      29.57F WCI  28
PRESTON        LGT RAIN  37  35  94 NE15      29.53F WCI  28
OWATONNA       LGT RAIN  39  37  93 NE9       29.60F WCI  33
FARIBAULT      RAIN      39  39 100 NE7G16    29.63F WCI  34
$$

...ELSEWHERE IN MINNESOTA...


CITY           SKY/WX    TMP DP  RH WIND       PRES   REMARKS
MINNEAPOLIS    HVY RAIN  39  35  86 NE9       29.71R FOG     WCI  33
INTNL FALLS    PTCLDY    41  19  41 E6        29.89F
DULUTH         CLOUDY    40  18  41 E20       29.76F WCI  30
RED WING       HVY RAIN  43  37  81 E5        29.67R
REDWOOD FALLS  RAIN      36  34  92 N13G21    29.66F FOG     WCI  27
MANKATO        RAIN      39  38  96 NE13      29.61F WCI  31
WORTHINGTON    MIX PCPN  33  32  96 N24G30    29.55F WCI  20
FAIRMONT       LGT RAIN  39  38  96 N23G29    29.48F WCI  28
$$

...SOUTHWEST WISCONSIN...


CITY           SKY/WX    TMP DP  RH WIND       PRES   REMARKS
LA CROSSE      LGT RAIN  41  40  96 CALM      29.66F FOG
PRAIRIE DU CHI DRIZZLE   40  39  97 NE3       29.54F
BOSCOBEL       LGT RAIN  42  32  67 NE7       29.57F
LONE ROCK      HVY RAIN  41  39  93 N5        29.62R VSB 1
PLATTEVILLE    CLOUDY    42  42 100 NE12      29.53F
FORT MC COY    HVY RAIN  38  37  97 S6        29.69R WCI  33
CAMP DOUGLAS   RAIN      38  36  94 SE8       29.62R FOG     WCI  32
MAUSTON-NEW LI HVY RAIN  38  37  94 E6        29.60S WCI  34
VIROQUA        CLOUDY    38  38 100 CALM      29.64R
WIS DELLS      RAIN      38  37  97 E10       29.59R WCI  31
$$

...ELSEWHERE IN WISCONSIN...


CITY           SKY/WX    TMP DP  RH WIND       PRES   REMARKS
MILWAUKEE      TSTM      42  41  96 NE17      29.59F FOG
MADISON        LGT RAIN  41  39  93 E9        29.57F
GREEN BAY      LGT RAIN  39  38  96 NE18G26   29.71F WCI  30
EAU CLAIRE     HVY RAIN  40  37  89 E15       29.62S FOG     WCI  32
BLACK RVR FLS  LGT RAIN  39  38  99 E8        29.63R VSB 1   WCI  33
MEDFORD        RAIN      36  34  92 E23G29    29.64F WCI  24
WAUSAU         RAIN      36  35  96 E16G26    29.66F WCI  26
WIS RAPIDS     LGT RAIN  37  36  96 E21G28    29.64F WCI  26
MARSHFIELD     RAIN      37  34  89 E22G29    29.60F WCI  26
RICE LAKE      DRIZZLE   38  35  87 NE12      29.67F WCI  31
$$

...NORTHEAST IOWA...


CITY           SKY/WX    TMP DP  RH WIND       PRES   REMARKS
WATERLOO       PTCLDY    40  38  93 NE10      29.47F WCI  33
DUBUQUE        CLOUDY    42  41  96 NE17      29.50F
DECORAH        CLOUDY    39  37  93 NE13G21   29.50F WCI  32
MASON CITY     CLOUDY    40  38  93 NE14      29.53  WCI  32
CHARLES CITY   CLOUDY    41  41 100 NE14      29.51R
OELWEIN        CLOUDY    41  41 100 E20       29.48F
$$

...ELSEWHERE IN IOWA...


CITY           SKY/WX    TMP DP  RH WIND       PRES   REMARKS
DES MOINES     LGT RAIN  46  44  93 NE9       29.44F
IOWA CITY      CLOUDY    47  44  90 E9        29.50S
FORT DODGE     CLOUDY    41  37  87 NE7       29.51S
MARSHALLTOWN   CLOUDY    43  43 100 E9        29.48F
CEDAR RAPIDS   CLOUDY    44  32  62 E8        29.47S
$$

...NORTHERN ILLINOIS...


CITY           SKY/WX    TMP DP  RH WIND       PRES   REMARKS
CHICAGO-OHARE  LGT RAIN  47  45  93 N6        29.55R
CHICAGO-MIDWAY RAIN      52  52 100 W15G25    29.56R FOG
MOLINE         CLOUDY    48  46  93 NE5       29.47F
ROCKFORD       LGT RAIN  46  43  89 NE7       29.55S FOG
PEORIA         MOCLDY    56  55  97 W7        29.47F
$$

NOTE: "FAIR" INDICATES FEW OR NO CLOUDS BELOW 12,000 FEET WITH NO
SIGNIFICANT WEATHER AND/OR OBSTRUCTIONS TO VISIBILITY. WIND
SPEEDS ARE IN MILES-PER-HOUR.




USA.gov is the U.S. government's official web portal to all federal, state and local government web resources and services.